Chehalis, WA

12:11 AM PDT on July 27, 2016 (GMT -0700)
Chehalis-Centralia

Weather History for KCLS - November, 2012

Change the Weather History Date:

Wednesday, November 21, 2012

  Actual Average (KOLM) Record (KOLM)
Temperature  
Mean Temperature 44 °F 42 °F  
Max Temperature 48 °F 49 °F 67 °F (1954)
Min Temperature 39 °F 36 °F 10 °F (1978)
Degree Days  
Heating Degree Days 22 23  
Month to date heating degree days 434  
Since 1 July heating degree days 1228  
Cooling Degree Days 0 0  
Month to date cooling degree days 0  
Year to date cooling degree days 106  
Moisture  
Dew Point 40 °F    
Average Humidity 87    
Maximum Humidity 100    
Minimum Humidity 71    
Precipitation  
Precipitation 0.27 in 0.31 in 1.79 in (1992)
Month to date precipitation 5.93  
Year to date precipitation 39.84  
Sea Level Pressure  
Sea Level Pressure 29.94 in    
Wind  
Wind Speed 8 mph (SSW)    
Max Wind Speed 21 mph    
Max Gust Speed 28 mph    
Visibility 9 miles    
Events Rain    
T = Trace of Precipitation, MM = Missing Value Source: NWS Daily Summary

Daily Weather History Graph

Daily Weather History Graph

Search for Another Location

Airport or City:

Trip Planner

Search our weather history database for the weather conditions in past years. The results will help you decide how hot, cold, wet, or windy it might be!

Date:

Astronomy

Nov. 21, 2012 Rise Set
Actual Time 7:23 AM PST 4:31 PM PST
Civil Twilight 6:50 AM PST 5:05 PM PST
Nautical Twilight 6:12 AM PST 5:42 PM PST
Astronomical Twilight 5:36 AM PST 6:18 PM PST
Moon 1:11 PM PST (11/21) 12:26 AM PST (11/21)
Length of Visible Light 10h 15m
Length of Day
9h 08m
Waxing Gibbous, 63% of the Moon is Illuminated
Nov 21
Waxing Gibbous
Nov 28
Full
Dec 6
Last Quarter
Dec 13
New
Dec 19
First Quarter

Hourly Weather History & Observations

Time (PST) Temp. Windchill Dew Point Humidity Pressure Visibility Wind Dir Wind Speed Gust Speed Precip Events Conditions
12:15 AM 46.4 °F 43.5 °F 41.0 °F 81% 29.57 in 10.0 mi South 5.8 mph - N/A   Overcast
12:35 AM 46.4 °F 44.3 °F 41.0 °F 81% 29.55 in 8.0 mi South 4.6 mph - N/A Rain Light Rain
12:55 AM 44.6 °F 40.7 °F 41.0 °F 87% 29.54 in 10.0 mi SSE 6.9 mph - N/A   Mostly Cloudy
1:15 AM 46.4 °F 41.9 °F 41.0 °F 81% 29.55 in 10.0 mi South 9.2 mph - N/A   Overcast
1:35 AM 46.4 °F 41.5 °F 42.8 °F 87% 29.54 in 10.0 mi South 10.4 mph - N/A   Overcast
1:55 AM 46.4 °F 39.8 °F 44.6 °F 93% 29.55 in 10.0 mi South 16.1 mph 23.0 mph 0.01 in   Overcast
2:15 AM 46.4 °F 40.1 °F 44.6 °F 93% 29.57 in 5.0 mi South 15.0 mph 25.3 mph 0.01 in   Overcast
2:35 AM 46.4 °F 40.4 °F 44.6 °F 93% 29.56 in 10.0 mi South 13.8 mph 19.6 mph 0.01 in   Overcast
2:55 AM 46.4 °F 40.4 °F 42.8 °F 87% 29.58 in 7.0 mi South 13.8 mph 23.0 mph 0.01 in   Overcast
3:15 AM 46.4 °F 40.7 °F 42.8 °F 87% 29.58 in 10.0 mi South 12.7 mph 23.0 mph N/A   Overcast
3:55 AM 46.4 °F 39.8 °F 42.8 °F 87% 29.60 in 7.0 mi South 16.1 mph - 0.01 in   Mostly Cloudy
4:15 AM 44.6 °F 36.4 °F 42.8 °F 93% 29.60 in 5.0 mi South 20.7 mph 26.5 mph 0.02 in Rain Light Rain
4:35 AM 46.4 °F 40.4 °F 41.0 °F 81% 29.64 in 6.0 mi SW 13.8 mph 27.6 mph 0.02 in Rain Light Rain
4:55 AM 44.6 °F 39.7 °F 41.0 °F 87% 29.67 in 5.0 mi SSW 9.2 mph - 0.05 in Rain Light Rain
5:15 AM 44.6 °F 40.7 °F 41.0 °F 87% 29.69 in 7.0 mi South 6.9 mph - N/A   Mostly Cloudy
5:35 AM 44.6 °F 39.2 °F 42.8 °F 93% 29.71 in 10.0 mi South 10.4 mph - 0.01 in   Overcast
5:55 AM 44.6 °F 40.7 °F 41.0 °F 87% 29.74 in 3.0 mi SW 6.9 mph - 0.02 in Rain Rain
6:15 AM 44.6 °F 42.2 °F 41.0 °F 87% 29.75 in 10.0 mi WSW 4.6 mph - N/A   Overcast
6:35 AM 44.6 °F - 41.0 °F 87% 29.76 in 10.0 mi Calm Calm - N/A   Mostly Cloudy
6:55 AM 42.8 °F - 41.0 °F 93% 29.78 in 10.0 mi Calm Calm - N/A   Mostly Cloudy
7:15 AM 42.8 °F 39.3 °F 41.0 °F 93% 29.79 in 10.0 mi SSE 5.8 mph - N/A   Mostly Cloudy
7:35 AM 41.0 °F 35.8 °F 41.0 °F 100% 29.79 in 10.0 mi South 8.1 mph - N/A   Mostly Cloudy
7:55 AM 42.8 °F 36.2 °F 41.0 °F 93% 29.81 in 9.0 mi SSE 12.7 mph - 0.01 in Rain Light Rain
8:15 AM 44.6 °F 40.2 °F 39.2 °F 81% 29.82 in 10.0 mi SSE 8.1 mph 16.1 mph 0.01 in   Mostly Cloudy
8:35 AM 44.6 °F 40.2 °F 39.2 °F 81% 29.82 in 10.0 mi South 8.1 mph - 0.01 in   Overcast
9:15 AM 42.8 °F 37.0 °F 39.2 °F 87% 29.86 in 10.0 mi South 10.4 mph 18.4 mph N/A   Overcast
9:35 AM 42.8 °F 39.3 °F 41.0 °F 93% 29.87 in 5.0 mi South 5.8 mph - 0.02 in Rain Light Rain
10:15 AM 44.6 °F 39.7 °F 41.0 °F 87% 29.88 in 4.0 mi South 9.2 mph - 0.02 in Rain Light Rain
10:35 AM 44.6 °F 39.7 °F 41.0 °F 87% 29.90 in 5.0 mi WSW 9.2 mph - 0.04 in Rain Light Rain
10:55 AM 44.6 °F 40.7 °F 41.0 °F 87% 29.91 in 10.0 mi South 6.9 mph - 0.05 in   Mostly Cloudy
11:15 AM 42.8 °F 36.6 °F 41.0 °F 93% 29.94 in 3.0 mi SSW 11.5 mph 16.1 mph 0.03 in Rain Rain
11:35 AM 42.8 °F 37.0 °F 37.4 °F 81% 29.92 in 10.0 mi South 10.4 mph 18.4 mph 0.04 in   Scattered Clouds
11:55 AM 44.6 °F 40.7 °F 39.2 °F 81% 29.93 in 10.0 mi South 6.9 mph - 0.04 in   Scattered Clouds
12:15 PM 44.6 °F 38.8 °F 39.2 °F 81% 29.93 in 10.0 mi SSW 11.5 mph 17.3 mph N/A   Scattered Clouds
12:35 PM 46.4 °F 41.5 °F 41.0 °F 81% 29.94 in 10.0 mi South 10.4 mph - N/A   Clear
12:55 PM 46.4 °F 41.1 °F 41.0 °F 81% 29.95 in 10.0 mi South 11.5 mph - N/A   Scattered Clouds
1:15 PM 46.4 °F 42.4 °F 39.2 °F 76% 29.96 in 7.0 mi WSW 8.1 mph 17.3 mph N/A   Mostly Cloudy
1:55 PM 44.6 °F 43.1 °F 41.0 °F 87% 30.00 in 9.0 mi SW 3.5 mph - 0.01 in Rain Light Rain
2:15 PM 46.4 °F 45.2 °F 41.0 °F 81% 30.00 in 10.0 mi SW 3.5 mph - N/A   Mostly Cloudy
2:35 PM 48.2 °F - 39.2 °F 71% 30.02 in 8.0 mi SW 10.4 mph - N/A   Mostly Cloudy
2:55 PM 48.2 °F - 39.2 °F 71% 30.03 in 10.0 mi SW 11.5 mph 19.6 mph N/A   Partly Cloudy
3:15 PM 46.4 °F 41.1 °F 37.4 °F 71% 30.05 in 10.0 mi SSW 11.5 mph 20.7 mph N/A   Clear
3:35 PM 46.4 °F 42.4 °F 37.4 °F 71% 30.07 in 10.0 mi SSW 8.1 mph - N/A   Scattered Clouds
3:55 PM 46.4 °F 41.5 °F 37.4 °F 71% 30.08 in 10.0 mi South 10.4 mph 16.1 mph N/A   Partly Cloudy
4:15 PM 44.6 °F 40.2 °F 39.2 °F 81% 30.10 in 10.0 mi South 8.1 mph - N/A   Scattered Clouds
4:35 PM 44.6 °F 42.2 °F 39.2 °F 81% 30.13 in 6.0 mi WSW 4.6 mph - N/A Rain Light Rain
4:55 PM 42.8 °F 41.1 °F 39.2 °F 87% 30.13 in 10.0 mi SW 3.5 mph - 0.01 in   Mostly Cloudy
5:15 PM 42.8 °F 41.1 °F 39.2 °F 87% 30.14 in 8.0 mi SW 3.5 mph - N/A   Overcast
5:35 PM 42.8 °F 40.1 °F 41.0 °F 93% 30.15 in 10.0 mi South 4.6 mph - N/A   Overcast
5:55 PM 42.8 °F 39.3 °F 39.2 °F 87% 30.17 in 10.0 mi South 5.8 mph - N/A   Mostly Cloudy
6:15 PM 41.0 °F 37.1 °F 39.2 °F 93% 30.18 in 10.0 mi South 5.8 mph - N/A   Mostly Cloudy
6:35 PM 41.0 °F 35.8 °F 39.2 °F 93% 30.19 in 10.0 mi South 8.1 mph - N/A   Mostly Cloudy
6:55 PM 41.0 °F 35.8 °F 39.2 °F 93% 30.20 in 7.0 mi South 8.1 mph - 0.01 in   Overcast
7:15 PM 41.0 °F 36.4 °F 39.2 °F 93% 30.21 in 10.0 mi SSW 6.9 mph - N/A   Mostly Cloudy
7:35 PM 41.0 °F 38.0 °F 39.2 °F 93% 30.22 in 10.0 mi SSW 4.6 mph - N/A   Scattered Clouds
7:55 PM 41.0 °F 37.1 °F 39.2 °F 93% 30.24 in 10.0 mi SSW 5.8 mph - N/A   Mostly Cloudy
8:15 PM 41.0 °F 35.8 °F 39.2 °F 93% 30.25 in 10.0 mi South 8.1 mph - N/A   Overcast
8:35 PM 41.0 °F 37.1 °F 39.2 °F 93% 30.25 in 10.0 mi South 5.8 mph - N/A   Mostly Cloudy
8:55 PM 41.0 °F 36.4 °F 39.2 °F 93% 30.27 in 10.0 mi South 6.9 mph - N/A   Mostly Cloudy
9:15 PM 41.0 °F 36.4 °F 39.2 °F 93% 30.28 in 10.0 mi SW 6.9 mph - N/A   Overcast
9:35 PM 41.0 °F 39.0 °F 39.2 °F 93% 30.29 in 10.0 mi SE 3.5 mph - 0.01 in   Overcast
9:55 PM 41.0 °F - 39.2 °F 93% 30.29 in 9.0 mi Calm Calm - 0.01 in   Overcast
10:15 PM 39.2 °F - 39.2 °F 100% 30.29 in 10.0 mi Calm Calm - N/A   Mostly Cloudy
10:35 PM 39.2 °F 35.9 °F 39.2 °F 100% 30.30 in 9.0 mi SSW 4.6 mph - N/A   Scattered Clouds
11:15 PM 39.2 °F 35.0 °F 37.4 °F 93% 30.31 in 9.0 mi SSW 5.8 mph - N/A   Mostly Cloudy
11:35 PM 39.2 °F 35.0 °F 37.4 °F 93% 30.31 in 10.0 mi SW 5.8 mph - N/A   Overcast
11:55 PM 39.2 °F 35.0 °F 37.4 °F 93% 30.32 in 10.0 mi SW 5.8 mph - N/A   Mostly Cloudy